{"data":{"norad_id":63701,"intl_designator":"2025-087E","name":"STARLINK-33950","alt_names":[],"object_type":"PAYLOAD","status":"ACTIVE","operator":null,"country":"US","launch_date":"2025-04-28","launch_site_code":"AFWTR","launch_vehicle":null,"mission":null,"orbit_class":"UNKNOWN","rcs_meters":null,"size_class":null,"mass_kg":null,"dimensions":null,"purposes":["comms"],"wikipedia_slug":null,"has_3d_model":false,"image_url":null,"decayed_at":null,"tle_current":{"epoch":"2026-05-25T05:04:36.828768Z","epoch_age_seconds":57086,"freshness":"FRESH","line1":"1 63701U 25087E   26145.21153737  .00116155  00000+0  37013-2 0  9990","line2":"2 63701  53.1591 224.2491 0001435  67.4073 292.7080 15.31662348 60910","mean_motion":15.31662348,"eccentricity":0.0001435,"inclination_deg":53.1591,"raan_deg":224.2491,"arg_perigee_deg":67.4073,"mean_anomaly_deg":292.708,"bstar":0.0037013,"rev_number":6091,"period_min":94.015499034778,"perigee_km":469.86940622225,"apogee_km":471.83506613303,"semimajor_km":6848.9892361776,"source":"CELESTRAK","updated_at":"2026-05-25T13:38:20.096487Z"}}}